This is the latest recevied weather packets stored in our database for station/object W4CKA. If no packets are shown the sender has not sent any weather packets the latest 10 day(s).
| Time | Temp. | Humidity | Pressure | Rain* | Wind** | Luminosity | Snow |
|---|---|---|---|---|---|---|---|
| 1778023303 | 21.11° C | 61% | 1053.3 hPa | 0 mm | - | 26 W/m² | - |
| 1778022699 | 21.11° C | 60% | 1053.3 hPa | 0 mm | - | 53 W/m² | - |
| 1778022098 | 21.11° C | 60% | 1053.3 hPa | 0 mm | - | 59 W/m² | - |
| 1778021497 | 21.11° C | 58% | 1053.5 hPa | 0 mm | - | 45 W/m² | - |
| 1778020897 | 21.67° C | 58% | 1053.4 hPa | 0 mm | - | 51 W/m² | - |
| 1778020296 | 22.22° C | 56% | 1053.6 hPa | 0 mm | - | 73 W/m² | - |
| 1778019695 | 22.78° C | 54% | 1053.5 hPa | 0 mm | - | 95 W/m² | - |
| 1778019094 | 23.33° C | 52% | 1053.7 hPa | 0 mm | - | 136 W/m² | - |
| 1778018489 | 23.89° C | 52% | 1053.6 hPa | 0 mm | - | 89 W/m² | - |
| 1778017885 | 25.56° C | 48% | 1053.5 hPa | 0 mm | - | 172 W/m² | - |
| 1778017279 | 23.89° C | 51% | 1053.5 hPa | 0 mm | - | 275 W/m² | - |
| 1778016679 | 23.89° C | 50% | 1053.4 hPa | 0 mm | - | 275 W/m² | - |
| 1778016079 | 23.89° C | 47% | 1053.6 hPa | 0 mm | - | 215 W/m² | - |
| 1778015478 | 23.89° C | 50% | 1053.8 hPa | 0 mm | - | 202 W/m² | - |
| 1778014877 | 23.89° C | 56% | 1053.7 hPa | 0 mm | - | 314 W/m² | - |
| 1778014273 | 23.89° C | 54% | 1053.8 hPa | 0 mm | - | 204 W/m² | - |
| 1778013667 | 23.89° C | 49% | 1054 hPa | 0 mm | - | 201 W/m² | - |
| 1778013067 | 25° C | 47% | 1054 hPa | 0 mm | - | 203 W/m² | - |
| 1778012465 | 25° C | 48% | 1053.8 hPa | 0 mm | - | 404 W/m² | - |
| 1778011859 | 25.56° C | 50% | 1054.1 hPa | 0 mm | - | 480 W/m² | - |
| 1778011259 | 25° C | 46% | 1054.3 hPa | 0 mm | - | 634 W/m² | - |
| 1778010659 | 24.44° C | 49% | 1054.5 hPa | 0 mm | - | 525 W/m² | - |
| 1778010058 | 24.44° C | 48% | 1054.8 hPa | 0 mm | - | 658 W/m² | - |
| 1778009458 | 23.89° C | 50% | 1055 hPa | 0 mm | - | 483 W/m² | - |
| 1778008854 | 22.78° C | 52% | 1055.1 hPa | 0 mm | - | 300 W/m² | - |
* Rain latest hour (hover to see other rain measurements)
** Current wind speed in m/s (hover to see current wind gust speed)